Change the Weather History Date:

Sunday, February 2, 2014

  Actual Average Record
Temperature  
Mean Temperature 32 °F -  
Max Temperature 42 °F - - ()
Min Temperature 21 °F - - ()
Degree Days  
Heating Degree Days 34    
Moisture  
Dew Point 14 °F    
Average Humidity 52    
Maximum Humidity 80    
Minimum Humidity 29    
Precipitation  
Precipitation 0.00 in - - ()
Sea Level Pressure  
Sea Level Pressure 29.99 in    
Wind  
Wind Speed 7 mph (NNW)    
Max Wind Speed 14 mph    
Max Gust Speed -    
Visibility 10 miles    
Events      
T = Trace of Precipitation, MM = Missing Value Source: NWS Daily Summary

Daily Weather History Graph

Daily Weather History Graph

Search for Another Location

Airport or City:

Trip Planner

Search our weather history database for the weather conditions in past years. The results will help you decide how hot, cold, wet, or windy it might be!

Date:

Astronomy

Feb. 02, 2014 Rise Set
Actual Time 7:05 AM MST 5:36 PM MST
Civil Twilight 6:38 AM MST 6:03 PM MST
Nautical Twilight 6:08 AM MST 6:33 PM MST
Astronomical Twilight 5:38 AM MST 7:03 PM MST
Moon 8:42 AM MST (2/2) 9:13 PM MST (2/2)
Length of Visible Light 11h 24m
Length of Day
10h 31m
Waxing Crescent, 12% of the Moon is Illuminated
Feb 2
Waxing Crescent
Feb 6
First Quarter
Feb 14
Full
Feb 22
Last Quarter
Mar 1
New

Hourly Weather History & Observations

Time (MST) Temp. Windchill Dew Point Humidity Pressure Visibility Wind Dir Wind Speed Gust Speed Precip Events Conditions
12:15 AM 32.0 °F 24.8 °F 16.7 °F 53% 29.98 in 10.0 mi NNW 8.1 mph - N/A   Overcast
12:35 AM 31.3 °F 24.7 °F 16.7 °F 55% 29.98 in 10.0 mi North 6.9 mph - N/A   Overcast
12:55 AM 31.1 °F 24.5 °F 16.7 °F 55% 29.98 in 10.0 mi NNW 6.9 mph - N/A   Overcast
1:15 AM 30.7 °F 24.1 °F 16.7 °F 56% 29.99 in 10.0 mi NNW 6.9 mph - N/A   Overcast
1:35 AM 30.6 °F 23.8 °F 16.7 °F 56% 29.98 in 10.0 mi NNW 6.9 mph - N/A   Overcast
1:55 AM 30.7 °F 21.4 °F 17.6 °F 58% 29.98 in 10.0 mi NNW 11.5 mph - N/A   Overcast
2:15 AM 30.2 °F 21.9 °F 17.6 °F 60% 29.98 in 10.0 mi NW 9.2 mph - N/A   Overcast
2:35 AM 30.2 °F 22.6 °F 17.6 °F 60% 29.98 in 10.0 mi NNW 8.1 mph - N/A   Overcast
2:55 AM 30.0 °F 21.7 °F 17.2 °F 59% 29.98 in 10.0 mi NNW 9.2 mph - N/A   Overcast
3:15 AM 29.3 °F 22.3 °F 16.7 °F 59% 29.99 in 10.0 mi NNW 6.9 mph - N/A   Overcast
3:35 AM 28.6 °F 21.5 °F 16.5 °F 61% 30.00 in 10.0 mi North 6.9 mph - N/A   Overcast
3:55 AM 28.4 °F 19.1 °F 16.5 °F 61% 29.99 in 10.0 mi NNW 10.4 mph - N/A   Overcast
4:15 AM 27.9 °F 20.6 °F 16.5 °F 62% 30.00 in 10.0 mi North 6.9 mph - N/A   Overcast
4:35 AM 26.8 °F 18.5 °F 16.2 °F 64% 30.00 in 10.0 mi NNW 8.1 mph - N/A   Overcast
5:49 AM 26.6 °F 16.8 °F 17.6 °F 69% 30.01 in 10.0 mi NNW 10.4 mph - N/A   Mostly Cloudy
6:49 AM 21.2 °F 12.6 °F 15.8 °F 80% 30.04 in 10.0 mi NW 6.9 mph - N/A   Partly Cloudy
7:50 AM 23.0 °F 12.4 °F 15.8 °F 74% 30.06 in 10.0 mi NNW 10.4 mph - N/A   Partly Cloudy
8:50 AM 30.2 °F 19.8 °F 17.6 °F 60% 30.08 in 10.0 mi North 13.8 mph - N/A   Partly Cloudy
9:50 AM 32.0 °F 23.6 °F 17.6 °F 55% 30.09 in 10.0 mi North 10.4 mph - N/A   Partly Cloudy
11:50 AM 37.4 °F 34.9 °F 15.8 °F 41% 30.08 in 10.0 mi SSW 3.5 mph - N/A   Partly Cloudy
12:50 PM 39.2 °F 35.0 °F 15.8 °F 39% 30.03 in 10.0 mi SSW 5.8 mph - N/A   Partly Cloudy
1:50 PM 41.0 °F 37.1 °F 14.0 °F 33% 30.00 in 10.0 mi SSW 5.8 mph - N/A   Partly Cloudy
2:47 PM 41.0 °F 37.1 °F 14.0 °F 33% 29.98 in 10.0 mi WSW 5.8 mph - N/A   Partly Cloudy
3:48 PM 42.8 °F - 12.2 °F 29% 29.97 in 10.0 mi Calm Calm - N/A   Clear
4:48 PM 41.0 °F 35.8 °F 14.0 °F 33% 29.96 in 10.0 mi SSE 8.1 mph - N/A   Scattered Clouds
5:47 PM 37.4 °F 32.8 °F 14.0 °F 38% 29.98 in 10.0 mi SSE 5.8 mph - N/A   Mostly Cloudy
6:48 PM - - - N/A% 30.00 in 10.0 mi SE 4.6 mph - N/A   Scattered Clouds
7:49 PM 32.0 °F - 12.2 °F 44% 30.00 in 10.0 mi Calm Calm - N/A   Scattered Clouds
8:49 PM 26.6 °F - 8.6 °F 47% 29.98 in 10.0 mi Calm Calm - N/A   Clear
9:15 PM 29.1 °F 25.4 °F 10.8 °F 46% 29.98 in 10.0 mi ESE 3.5 mph - N/A   Clear
9:35 PM 29.5 °F - 10.4 °F 45% 29.98 in 10.0 mi Calm Calm - N/A   Clear
9:47 PM 30.2 °F - 10.4 °F 44% 29.98 in 10.0 mi Calm Calm - N/A   Clear
9:55 PM 30.0 °F - 10.9 °F 45% 29.97 in 10.0 mi Calm Calm - N/A   Clear
10:15 PM 26.1 °F - 8.8 °F 48% 29.97 in 10.0 mi Calm Calm - N/A   Clear
10:35 PM 31.8 °F 28.5 °F 12.0 °F 44% 29.97 in 10.0 mi SE 3.5 mph - N/A   Clear
10:55 PM 29.8 °F - 11.7 °F 47% 29.96 in 10.0 mi Calm Calm - N/A   Scattered Clouds
11:15 PM 26.2 °F - 9.3 °F 49% 29.95 in 10.0 mi Calm Calm - N/A   Scattered Clouds
11:35 PM 27.1 °F - 10.4 °F 49% 29.95 in 10.0 mi Calm Calm - N/A   Clear
11:55 PM 26.1 °F - 10.0 °F 51% 29.95 in 10.0 mi Calm Calm - N/A   Clear